Treasure Island

Horace

(8 December 65 BC – 27 November 8 BC / Italy)

Stats

» Click to list general statistics » OR, select a date :

General Statistics

Visitors of the poet

Number of visitors of the poet’s mainpage in PoemHunter.Com

Attention : Numbers in this table does not indicate the total hits of poems of the poet, but indicates the hits of the poet’s main page.

Date Hits
09/22/2014 Monday 109
45%
09/21/2014 Sunday 156
64%
09/20/2014 Saturday 102
42%
09/19/2014 Friday 71
29%
09/18/2014 Thursday 59
24%
09/17/2014 Wednesday 93
38%
09/16/2014 Tuesday 106
43%
09/15/2014 Monday 136
56%
09/14/2014 Sunday 155
64%
09/13/2014 Saturday 132
54%
09/12/2014 Friday 139
57%
09/11/2014 Thursday 110
45%
09/10/2014 Wednesday 138
57%
09/09/2014 Tuesday 203
83%
09/08/2014 Monday 242
100%
09/07/2014 Sunday 99
40%
09/06/2014 Saturday 58
23%
09/05/2014 Friday 155
64%
09/04/2014 Thursday 81
33%
09/03/2014 Wednesday 112
46%

Reader rating & num.of MyPoemList’s

Click the captions of columns to change the order.

# Poem Title Submit Date Reader Rating Num.of MyPoemList’s
Rating Num.R.
1 BkI:I The Dedication: To Maecenas 05/02/2012 5.7 29 0
2 BkI:II To Augustus 05/02/2012 5.4 31 0
3 BkI:III Virgil: Off to Greece 05/02/2012 5.5 29 0
4 BkI:IV Spring 05/02/2012 5.5 29 0
5 BkI:IX Winter 05/02/2012 5.4 29 0
6 BkI:V Treacherous Girl 05/02/2012 5.2 37 0
7 BkI:VI A Tribute to Agrippa 05/02/2012 5.5 30 0
8 BkI:VII Tibur 05/02/2012 5.5 30 0
9 BkI:VIII: To Lydia: Stop Ruining Sybaris! 05/02/2012 5.5 30 0
10 BkI:X To Mercury 05/02/2012 5.4 27 0
11 BkI:XI Carpe Diem 05/02/2012 5.4 27 3
12 BkI:XII Praising Augustus 05/02/2012 5.7 28 0
13 BkI:XIII His Jealousy 05/02/2012 5.4 23 0
14 BkI:XIV The Ship of State 05/02/2012 5.4 26 0
15 BkI:XIX Glycera’s Beauty 05/02/2012 5.8 26 0
16 BkI:XV Nereus’ Prophecy of Troy 05/02/2012 5.7 29 0
17 BkI:XVI He Repents 05/02/2012 5.3 26 0
18 BkI:XVII The Delights of the Country 05/02/2012 5.5 30 0
19 BkI:XVIII Wine 05/02/2012 5.3 30 0
20 BkI:XX To Maecenas 05/02/2012 5.4 29 0
21 BkI:XXI Hymn to Diana 05/02/2012 5.2 28 0
22 BkI:XXII Singing of Lalage (Integer Vitae) 05/02/2012 5.5 30 0
23 BkI:XXIII Chloë, Don’t Run. 05/02/2012 5.5 30 0
24 BkI:XXIV A Lament For Quintilius 05/02/2012 5.6 28 0
25 BkI:XXIX Off To The Wars 05/02/2012 5.5 29 0
26 BkI:XXV A Prophecy of Age 05/02/2012 5.2 18 0
27 BkI:XXVI A Garland For Lamia 05/02/2012 5.7 18 0
28 BkI:XXVII Entanglement 05/02/2012 5.5 20 0
29 BkI:XXVIII Three Handfuls of Earth 05/02/2012 5.5 20 0
30 BkI:XXX Ode To Venus 05/02/2012 5.5 20 0
31 BkI:XXXI A Prayer to Apollo 05/02/2012 5.5 20 0
32 BkI:XXXII To the Lyre 05/02/2012 5.5 20 0
33 BkI:XXXIII Tibullus, Don’t Grieve 05/02/2012 5.4 19 0
34 BkI:XXXIV Fortune’s Changes 05/02/2012 5.4 19 0
35 BkI:XXXV To Fortune 05/02/2012 5.7 19 0
36 BkI:XXXVI Numida’s Back Again 05/02/2012 5.4 19 0
37 BkI:XXXVII Cleopatra 05/02/2012 5.5 21 0
38 BkI:XXXVIII The Simple Myrtle 05/02/2012 5.5 20 0
39 BkII:I To Pollio, Writing His History of the Civil Wars 05/02/2012 4.9 18 0
40 BkII:II Money 05/02/2012 5.5 20 0
41 BkII:III One Ending 05/02/2012 5.5 22 0
42 BkII:IV Loving A Servant Girl 05/02/2012 5.5 20 0
43 BkII:IX Stop Weeping 05/02/2012 5.4 21 0
44 BkII:V Be Patient 05/02/2012 5.7 19 0
45 BkII:VI Tibur and Tarentum 05/02/2012 5.5 20 0
46 BkII:VII A Friend Home From the Wars 05/02/2012 5.9 17 0
47 BkII:VIII Faithless Barine 05/02/2012 5.7 21 0
48 BkII:X The Golden Mean 05/02/2012 5.7 17 0
49 BkII:XI Don’t Ask 05/02/2012 5.1 18 1
50 BkII:XII Terentia’s Singing 05/02/2012 5.3 20 0
51 BkII:XIII Nearly, Tree 05/02/2012 5.5 20 0
52 BkII:XIV Eheu Fugaces 05/02/2012 5.9 18 0
53 BkII:XIX To Bacchus 05/02/2012 5.6 17 0
54 BkII:XV Excess 05/02/2012 5.5 19 0
55 BkII:XVI Contentment 05/02/2012 5.6 17 0
56 BkII:XVII We’ll Go Together 05/02/2012 5.5 19 0
57 BkII:XVIII Vain Riches 05/02/2012 5.5 20 0
58 BkII:XX Poetic Immortality 05/02/2012 5.4 19 0
59 BkIII:I Odi Profanum 05/02/2012 5.5 20 0
60 BkIII:II Dulce Et Decorum Est 05/02/2012 4.9 20 0
61 BkIII:III Stand Firm 05/02/2012 5.7 21 0
62 BkIII:IV Temper Power With Wisdom 05/02/2012 5.9 22 0
63 BkIII:IX A Dialogue 05/02/2012 5.5 19 0
64 BkIII:V No Surrender 05/02/2012 5.3 17 0
65 BkIII:VI Moral Decadence 05/02/2012 5.5 20 0
66 BkIII:VII Be True 05/02/2012 5.5 20 0
67 BkIII:VIII Celebration 05/02/2012 5.1 17 0
68 BkIII:X Cruel One 05/02/2012 5.5 20 0
69 BkIII:XI Remember the Danaids 05/02/2012 5.5 20 0
70 BkIII:XII Neobule, to Herself 05/02/2012 5.7 19 0
71 BkIII:XIII O Fons Bandusiae 05/02/2012 5.7 18 0
72 BkIII:XIV Augustus Returns 05/02/2012 5.7 19 0
73 BkIII:XIX Let’s Drink 05/02/2012 5.1 18 0
74 BkIII:XV Too Old 05/02/2012 5.7 19 0
75 BkIII:XVI Just Enough 05/02/2012 5.1 18 0
76 BkIII:XVII The Approaching Storm 05/02/2012 5.5 20 0
77 BkIII:XVIII To Faunus 05/02/2012 5.7 18 0
78 BkIII:XX The Conflict 05/02/2012 5.5 20 0
79 BkIII:XXI Praise Of Wine 05/02/2012 5.2 16 0
80 BkIII:XXII To Diana 05/02/2012 5.5 20 0
81 BkIII:XXIII Pure Hands 05/02/2012 5.5 19 0
82 BkIII:XXIV Destructive Wealth 05/02/2012 5.5 19 0
83 BkIII:XXIX Fortune 05/02/2012 5.5 20 0
84 BkIII:XXV Bacchanalian Song 05/02/2012 5.5 20 0
85 BkIII:XXVI Enough 05/02/2012 5.5 20 0
86 BkIII:XXVII Europa 05/02/2012 5.4 18 0
87 BkIII:XXVIII For Neptune 05/02/2012 4.9 17 0
88 BkIII:XXX Aere Perennius 05/02/2012 5.7 18 1
89 BkIV:I Venus, be Merciful 05/02/2012 5.6 17 0
90 BkIV:II Augustus’s Return 05/02/2012 5.4 19 0
91 BkIV:III To The Muse 05/02/2012 5.4 19 0
92 BkIV:IV Drusus and the Claudians 05/02/2012 5.8 21 0
93 BkIV:IX Lollius 05/02/2012 5.5 20 0
94 BkIV:V To Augustus 05/02/2012 5.1 18 0
95 BkIV:VI To Apollo 05/02/2012 5.5 20 0
96 BkIV:VII Diffugere Nives 05/02/2012 5.7 19 0
97 BkIV:VIII Poetry 05/02/2012 5.7 17 0
98 BkIV:X Age 05/02/2012 5.5 19 0
99 BkIV:XI Maecenas’ Birthday 05/02/2012 5.8 17 0
100 BkIV:XII Spring 05/02/2012 5.7 18 0
101 BkIV:XIII You too, Lyce 05/02/2012 5.9 19 0
102 BkIV:XIV Drusus and Tiberius 05/02/2012 5.3 19 0
103 BkIV:XV To Augustus 05/02/2012 5.5 20 0
104 Book 1, No.5 ("To Pyrrha") 01/20/2003 5.8 11 2
105 Regulus 12/08/2003 -- 0 1
[Hata Bildir]